Regional Weather Roundup
Issued by NWS Charleston, SC

Current Version | Previous Version | Text Only | Print | Product List | Glossary Off
Versions: 1 2 3 4 5 6 7 8 9 10 11 12 13 14 15 16 17 18 19 20 21 22 23 24 25 26 27 28 29 30 31 32 33 34 35 36 37 38 39 40 41 42 43 44 45 46 47 48 49 50

000
ASUS42 KCHS 282212
RWRCHS

REGIONAL WEATHER ROUNDUP
NATIONAL WEATHER SERVICE CHARLESTON SC
600 PM EDT SUN MAY 28 2017

NOTE: "FAIR" INDICATES FEW OR NO CLOUDS BELOW 12,000 FEET WITH NO
SIGNIFICANT WEATHER AND/OR OBSTRUCTIONS TO VISIBILITY.

NOT ALL STATIONS ARE QUALITY CONTROLLED. USE DATA WITH CAUTION...
ESPECIALLY DEWPOINT OBSERVATIONS.

SCZ027-030-031-034>040-042>050-282300-
...SOUTHEAST SOUTH CAROLINA...

CITY           SKY/WX    TMP DP  RH WIND       PRES   REMARKS
N CHARLESTON   PTSUNNY   86  72  62 SW9       29.86F HX  92
WATERFRONT PRK   N/A     83  76  79 S10       29.86S HX  91
JOHNS ISLAND   FAIR      82  75  78 SW12      29.88S
PINOPOLIS        N/A     86  73  66 SW13G20   29.78S HX  93
MONCKS CORNER  FAIR      86  68  54 SW13      29.86R
SUMMERVILLE    FAIR      86  72  62 SW8       29.87S HX  92
BEAUFORT MCAS  MOSUNNY   91  72  53 SW18G24   29.86F HX  98
BEAUFORT ARPT  FAIR      90  70  51 W12G17    29.87S HX  95
HILTON HEAD IS MOSUNNY   91  70  49 W9        29.88F HX  97
WALTERBORO     CLOUDY    86  72  62 SW9       29.87S HX  92
ALLENDALE      FAIR      90  70  51 VRB6G12   29.84F HX  95

...SOUTHERN MIDLANDS AND PEE DEE...

CITY           SKY/WX    TMP DP  RH WIND       PRES   REMARKS
GEORGETOWN     NOT AVBL
KINGSTREE      FAIR      88  68  51 SW10G18   29.84R HX  91
ORANGEBURG     CLOUDY    86  71  60 SW14      29.86R HX  91
BARNWELL       FAIR      91  73  55 SW16      29.85F HX 100
AIKEN          MOCLDY    84  70  61 SW12G20   29.89R
MANNING        FAIR      86  73  66 SW23G32   29.85R HX  93
COLUMBIA       CLOUDY    89  71  55 SW12      29.83R HX  95
SUMTER         MOSUNNY   87  71  58 SW13      29.81S HX  92
FLORENCE       MOSUNNY   89  69  51 SW18      29.82S HX  93
MYRTLE BEACH   MOSUNNY   90  70  51 W18       29.84S HX  95
N MYRTLE BEACH MOSUNNY   81  74  79 SW17      29.83S

$$

GAZ063-065-086>088-099>101-113>116-118-119-134>141-150-282300-
...SOUTHEAST GEORGIA...

CITY           SKY/WX    TMP DP  RH WIND       PRES   REMARKS
SAVANNAH ARPT  MOSUNNY   94  65  38 W10       29.88F HX  96
HUNTER AAF     SUNNY     93  75  55 W10G20    29.86F HX 104
FORT STEWART   SUNNY     93  66  41 W15       29.87F HX  95
STATESBORO     SUNNY     92  69  47 W12G17    29.87F HX  96
SYLVANIA       CLEAR     91  71  52 W9G16     29.87F HX  96
CLAXTON        FAIR      91  72  53 SW12G17   29.88F HX  97

...CSRA...CENTRAL AND FAR SOUTHEAST GEORGIA...

CITY           SKY/WX    TMP DP  RH WIND       PRES   REMARKS
THOMSON        MOSUNNY   88  70  55 NW9       29.91R HX  93
AUGUSTA-BUSH   MOSUNNY   90  70  51 W10       29.84S HX  95
AUGUSTA-DANIEL PTSUNNY   89  67  47 VRB6G20   29.86S HX  92
SWAINSBORO     FAIR      90  68  48 SW9G17    29.88F HX  93
VIDALIA        SUNNY     91  68  46 SW16      29.89F HX  95
EASTMAN        FAIR      91  54  28 SW7       29.92S
HAZLEHURST     FAIR      92  66  42 W10G16    29.90F HX  94
ALMA           SUNNY     93  63  36 W10       29.92F HX  94
WAYCROSS       SUNNY     96  70  41 W15G21    29.93S HX 103
JESUP          FAIR      93  61  33 W10G16    29.91F HX  93
BAXLEY         FAIR      93  70  46 W9G17     29.90F HX  99
BRUNSWICK      SUNNY     93  70  46 W12G21    29.92F HX  99
SAINT SIMONS   SUNNY     93  67  42 W12       29.91F HX  96

$$

SCZ027-028-034-036>038-045-046-048>050-GAZ119-141-282300-
...LAKE AND SUPPLEMENTAL COASTAL OBSERVATIONS...

STATION/POSITION TIME  TEMP    WIND        PRES    WAVE   SWELL
                       AIR SEA DIR/SP/G            HT/PER HT/PER/DIR
                 (UTC) (F)     (DEG/KT/KT) (MB)    (FT/S) (FT/S/D)
WINYAH BAY       NOT AVBL
LAKE MURRAY      2120   86     250/ 12/ 15 1009.1F
ACE BASIN NERRS  NOT AVBL
FORT PULASKI     2148   90     270/  8/ 13 1012.2F
SAPELO ISLAND    2100   91     250/ 12     1013.0

$$

ANZ835-935-AMZ111-154-330-350-352-354-370-450-454-472-282300-
...C-MAN AND BUOY OBSERVATIONS...

STATION/POSITION TIME  TEMP    WIND        PRES    WAVE   SWELL
                       AIR SEA DIR/SP/G            HT/PER HT/PER/DIR
                 (UTC) (F)     (DEG/KT/KT) (MB)    (FT/S) (FT/S/D)
BUOY 41004       2150   77 76  210/ 14/ 16 1012.0F   3/ 5   2/160/10
BUOY 41008       2050   81 79  190/ 10/ 12 1013.2    2/ 8   2/100/ 8
FOLLY BEACH CMAN 2100   79     200/ 12/ 14 1012.7F
CAPERS NEARSHORE 2108   82 78  220/ 16/ 21 1011.6F
FRIPP NEARSHORE  2108   81 80  200/ 14/ 17 1012.0F


STATION/POSITION TIME  TEMP    WIND        PRES    WAVE   SWELL
                       AIR SEA DIR/SP/G            HT/PER HT/PER/DIR
                 (UTC) (F)     (DEG/KT/KT) (MB)    (FT/S) (FT/S/D)
5E ST. MARYS GA  2100      81                N/A     1/ 8
FRYING PAN BUOY  2150   77 75  210/ 17/ 23 1010.8F   4/ 5
BUOY 41025       2150   78 76  220/ 19/ 23 1009.1S   4/ 6   2/160/10
CAPE LOOKOUT NC  2100   79     220/ 11/ 14 1009.2F
BUOY 41002       2050   77 77  200/ 14/ 16 1014.5    4/ 5   2/130/ 8
BUOY 41010       2150   80 80  260/  8/ 10 1015.6F   2/ 4   2/180/ 4
ST AUGUSTINE FL  2200   81 80  130/ 11/ 14 1015.1F


$$



USA.gov is the U.S. government's official web portal to all federal, state and local government web resources and services.